Flag for U.S.A. Weather past 2 weeks in Chandler, Arizona, U.S.A.

Now
52 °F

Clear.


Feels Like: 50 °F
Forecast: 58 / 89 °F
Wind: 6 mph from East

Location: Williams Gateway Airport


UV Index: 7 (High)

Visibility: 10 mi


Pressure: 29.93 "Hg

Humidity: 22%

Dew point: 14 °F

Location of ChandlerLocation

Historic Weather in Chandler

°F

Chandler temperature yesterday

Maximum temperature yesterday: 84 °F (at 1:47 PM)
Minimum temperature yesterday: 63 °F (at 11:15 PM)
Average temperature yesterday: 70 °F

Past Weeks' High & Low Weather Summary

 TemperatureHumidityPressure
High93 °F (Apr 9, 3:47 PM)60% (Apr 19, 7:52 AM)30.09 "Hg (Apr 19, 7:52 AM)
Low52 °F (Apr 15, 2:35 AM)4% (Apr 11, 12:54 PM)29.70 "Hg (Apr 12, 5:47 PM)
Average70 °F22%29.89 "Hg
* Reported Apr 9 5:15 AM — Apr 24 5:15 AM, Chandler, Weather by CustomWeather, © 2014

Note: Actual official high and low records may vary slightly from our data, if they occured in-between our weather recording intervals... More about our weather records

Advertising

Historic Weather Conditions — Data for Previous 24 hours

 ConditionsComfort  
Time TempWeatherWind HumidityBarometerVisibility
5:15 AM
Apr 24
55 °FClear.6 mph23%29.92 "Hg10 mi
4:55 AM55 °FClear.5 mph23%29.92 "Hg10 mi
4:35 AM55 °FClear.8 mph23%29.92 "Hg10 mi
4:15 AM54 °FClear.7 mph28%29.92 "Hg10 mi
3:55 AM55 °FClear.7 mph26%29.92 "Hg10 mi
3:35 AM55 °FClear.9 mph23%29.92 "Hg10 mi
3:15 AM55 °FClear.8 mph23%29.91 "Hg10 mi
2:55 AM55 °FClear.5 mph26%29.91 "Hg10 mi
2:35 AM54 °FClear.6 mph38%29.91 "Hg10 mi
2:15 AM57 °FClear.5 mph31%29.91 "Hg10 mi
1:55 AM57 °FClear.6 mph27%29.91 "Hg10 mi
1:35 AM55 °FClear.7 mph28%29.91 "Hg10 mi
1:15 AM61 °FClear.6 mph16%29.91 "Hg10 mi
12:15 AM61 °FClear.5 mph16%29.90 "Hg10 mi
11:55 PM
Apr 23
63 °FClear.3 mph15%29.90 "Hg10 mi
11:35 PM63 °FClear.5 mph15%29.89 "Hg10 mi
11:15 PM63 °FClear.No wind17%29.89 "Hg10 mi
10:55 PM64 °FClear.No wind16%29.89 "Hg10 mi
10:15 PM70 °FClear.6 mph13%29.88 "Hg10 mi
9:55 PM68 °FClear.5 mph17%29.87 "Hg10 mi
9:35 PM64 °FClear.5 mph24%29.87 "Hg10 mi
9:15 PM68 °FClear.6 mph17%29.87 "Hg10 mi
8:55 PM68 °FClear.6 mph18%29.86 "Hg10 mi
8:15 PM72 °FClear.5 mph13%29.84 "Hg10 mi
7:55 PM72 °FClear.3 mph14%29.83 "Hg10 mi
6:52 PM81 °FScattered clouds.3 mph7%29.81 "Hg45 mi
5:47 PM84 °FPassing clouds.9 mph6%29.80 "Hg35 mi
3:47 PM84 °FPassing clouds.15 mph8%29.81 "Hg35 mi
2:50 PM84 °FPassing clouds.12 mph8%29.82 "Hg35 mi
1:47 PM84 °FPassing clouds.3 mph8%29.84 "Hg35 mi
12:47 PM81 °FPassing clouds.6 mph9%29.84 "Hg35 mi
11:47 AM79 °FPassing clouds.10 mph9%29.84 "Hg35 mi
10:52 AM79 °FPassing clouds.3 mph11%29.85 "Hg35 mi
9:47 AM75 °FPassing clouds.7 mph15%29.85 "Hg35 mi
8:50 AM73 °FPassing clouds.7 mph16%29.84 "Hg35 mi
7:48 AM70 °FPassing clouds.7 mph21%29.83 "Hg35 mi
6:58 AM64 °FPassing clouds.6 mph26%29.82 "Hg35 mi
Weather by CustomWeather, © 2014

See weather overview